Lynchburg, VA

12:35 AM EDT on October 21, 2017 (GMT -0400)
Lynchburg Regional-Glenn

Weather History for KLYH - April, 2014

Change the Weather History Date:

Friday, April 11, 2014

  Actual Average Record
Temperature  
Mean Temperature 67 °F 54 °F  
Max Temperature 83 °F 67 °F 92 °F (1930)
Min Temperature 50 °F 42 °F 23 °F (1909)
Degree Days  
Heating Degree Days 0 11  
Month to date heating degree days 67 138  
Since 1 July heating degree days 4231 4157  
Cooling Degree Days 2 0  
Month to date cooling degree days 6 0  
Year to date cooling degree days 6 2  
Growing Degree Days 17 (Base 50)    
Moisture  
Dew Point 38 °F    
Average Humidity 38    
Maximum Humidity 55    
Minimum Humidity 20    
Precipitation  
Precipitation T in 0.12 in 1.06 in (1913)
Month to date precipitation 1.49 1.25  
Year to date precipitation 11.50 10.90  
Snow  
Snow 0.00 in - - ()
Month to date snowfall 0.0  
Since 1 July snowfall 21.4  
Snow Depth 0.00 in    
Sea Level Pressure  
Sea Level Pressure 30.06 in    
Wind  
Wind Speed 8 mph (SSW)    
Max Wind Speed 21 mph    
Max Gust Speed 25 mph    
Visibility 10 miles    
Events      
T = Trace of Precipitation, MM = Missing Value Source: NWS Daily Summary

Daily Weather History Graph

Daily Weather History Graph

Search for Another Location

Airport or City:

Trip Planner

Search our weather history database for the weather conditions in past years. The results will help you decide how hot, cold, wet, or windy it might be!

Date:

Astronomy

Apr. 11, 2014 Rise Set
Actual Time 6:47 AM EDT 7:48 PM EDT
Civil Twilight 6:21 AM EDT 8:15 PM EDT
Nautical Twilight 5:49 AM EDT 8:46 PM EDT
Astronomical Twilight 5:16 AM EDT 9:19 PM EDT
Moon 4:31 PM EDT (4/11) 4:37 AM EDT (4/11)
Length of Visible Light 13h 54m
Length of Day
13h 00m
Waxing Gibbous, 87% of the Moon is Illuminated
Apr 11
Waxing Gibbous
Apr 15
Full
Apr 22
Last Quarter
Apr 29
New
May 6
First Quarter

Hourly Weather History & Observations

Time (EDT) Temp. Dew Point Humidity Pressure Visibility Wind Dir Wind Speed Gust Speed Precip Events Conditions
12:54 AM 61.0 °F 33.1 °F 35% 30.11 in 10.0 mi SSW 8.1 mph - N/A   Clear
1:54 AM 57.9 °F 34.0 °F 41% 30.10 in 10.0 mi SSW 6.9 mph - N/A   Clear
2:54 AM 55.0 °F 35.1 °F 47% 30.09 in 10.0 mi SSW 5.8 mph - N/A   Clear
3:54 AM 57.0 °F 34.0 °F 42% 30.08 in 10.0 mi SW 3.5 mph - N/A   Clear
4:54 AM 54.0 °F 36.0 °F 51% 30.09 in 10.0 mi SSW 4.6 mph - N/A   Clear
5:54 AM 53.1 °F 35.1 °F 50% 30.11 in 10.0 mi SSW 4.6 mph - N/A   Clear
6:54 AM 52.0 °F 36.0 °F 54% 30.12 in 10.0 mi SSW 6.9 mph - N/A   Clear
7:54 AM 57.0 °F 39.0 °F 51% 30.14 in 10.0 mi SSW 4.6 mph - N/A   Clear
8:54 AM 64.0 °F 39.9 °F 41% 30.13 in 10.0 mi South 6.9 mph - N/A   Clear
9:54 AM 66.9 °F 39.9 °F 37% 30.13 in 10.0 mi South 9.2 mph - N/A   Clear
10:54 AM 73.9 °F 39.0 °F 28% 30.12 in 10.0 mi SW 8.1 mph - N/A   Clear
11:54 AM 75.9 °F 37.9 °F 25% 30.09 in 10.0 mi WSW 8.1 mph - N/A   Clear
12:54 PM 82.0 °F 37.9 °F 21% 30.04 in 10.0 mi SSW 12.7 mph 18.4 mph N/A   Clear
1:54 PM 82.0 °F 39.0 °F 22% 30.01 in 10.0 mi South 18.4 mph 24.2 mph N/A   Clear
2:54 PM 79.0 °F 37.9 °F 23% 30.01 in 10.0 mi SSW 16.1 mph 21.9 mph N/A   Clear
3:54 PM 82.0 °F 37.9 °F 21% 29.99 in 10.0 mi SW 12.7 mph 20.7 mph N/A   Clear
4:54 PM 81.0 °F 37.0 °F 21% 29.98 in 10.0 mi South 18.4 mph 25.3 mph N/A   Clear
5:54 PM 80.1 °F 39.0 °F 23% 29.97 in 10.0 mi SSW 15.0 mph 20.7 mph N/A   Clear
6:54 PM 78.1 °F 39.0 °F 25% 29.98 in 10.0 mi SSW 12.7 mph 21.9 mph N/A   Clear
7:54 PM 73.9 °F 39.0 °F 28% 29.99 in 10.0 mi SSW 10.4 mph - N/A   Clear
8:54 PM 72.0 °F 39.0 °F 30% 30.03 in 10.0 mi SSW 6.9 mph - N/A   Clear
9:54 PM 73.0 °F 37.9 °F 28% 30.09 in 10.0 mi Variable 5.8 mph - N/A   Overcast
10:54 PM 68.0 °F 45.0 °F 43% 30.06 in 10.0 mi SW 3.5 mph - 0.00 in   Clear
11:54 PM 61.0 °F 45.0 °F 56% 30.08 in 10.0 mi Calm Calm - N/A   Clear